Find Starlink 3535

NORAD ID: 51722 Int'l Des: 2022-016 Owner: SPXS Country: US Constellation: starlink operational
LEOCIRCULAR

当前视图

正在加载3D地球...

About Starlink 3535

Starlink 3535 (NORAD 51722) is a starlink constellation satellite (v1.5) launched Feb 21, 2022 by SPXS of US. It operates in LEO, CIRCULAR orbit with a mass of 297.00 kg.

即将过境

Passes for default location (London). Set your location on the main map for personalized predictions.

高度历史

Loading altitude history...

两行轨道根数

1 51722U 22016J 26262.94312416 -.00000764 00000-0 -10994-4 0 9992
2 51722 53.1606 166.0470 0001489 74.1806 285.9362 15.35406620252895
Epoch: Sep 19, 2026 • Age: 37 hours

当前状态

高度 478.3 km
远地点 / 近地点 N/A
速度 7.63 km/s
星下点 -51.09°S, 85.94°W
发射日期 Feb 21, 2022
运行时间 4.5 years
类型 internet

技术详情

分类 Payload
质量 297.00 kg
干质量 275.00 kg
长度 0.20 m
跨度 9.00 m
形状 ? Box + pan
制造商 SPXS
平台类型 Starlink
阶段状态 In Orbit
所有者/国家 SPXS/US

Most Searched